Terug naar catalogus

STARLINK-2616

ActiefCommunicatieVLEO
NORAD 48695·PAYLOAD·🇺🇸 United States

Gelanceerd May 26, 2021 vanaf Cape Canaveral Space Force Station

Loading…

Volgende Passages (komende 24 uur)

TLE

VersSource: CelesTrak SupGP

Epoch: Sep 14, 2026, 20:45 UTC

1 48695C 21044BK  26257.86506944  .00035312  00000+0  11354-2 0  2573
2 48695  53.1580 277.4080 0001125  87.0834 225.1064 15.31688400    10

Volg STARLINK-2616 in realtime met AllMySat

Download on the App Store